Location: Pradons
(44.4746°N, 4.3578°E)
Time: 15:45:19
(UTC+00:00)

Meteor 2-10 Rocket - Pass Details

Date: 09 April 2020
Orbit: 734 x 885 km, 81.2° (Epoch: 04 June)

Event Time Altitude Azimuth Distance (km) Brightness Sun altitude
Exits shadow 20:33:53 40° 80° (E) 1,162 4.1 -22.3°
Drops below altitude 10° 20:38:29 10° 24° (NNE) 2,409 6.2 -23.0°
Sets 20:41:02 0° 18° (NNE) 3,371 7.1 -23.3°
